| time (UTC) | temp C | wind direction | speed KPH | gust KPH | rain 1hr cm | rain 24hr cm | rain mn cm | humidity % | barometer mb |
| 20260902204213 | 15 | 125 | 12.9 | 25.7 | 0.03 | 0.58 | 0.58 | 89 | 1006.9 |
| 20260902203713 | 15 | 121 | 14.5 | 25.7 | 0.03 | 0.58 | 0.58 | 89 | 1006.9 |
| 20260902203210 | 15 | 147 | 14.5 | 22.5 | 0.00 | 0.56 | 0.56 | 88 | 1006.9 |
| 20260902202711 | 15 | 133 | 14.5 | 22.5 | 0.00 | 0.56 | 0.56 | 89 | 1006.9 |
| 20260902202210 | 15 | 118 | 14.5 | 27.4 | 0.00 | 0.56 | 0.56 | 88 | 1006.9 |
| 20260902201709 | 15 | 112 | 16.1 | 27.4 | 0.00 | 0.56 | 0.56 | 88 | 1006.8 |
| 20260902201208 | 15 | 122 | 14.5 | 25.7 | 0.00 | 0.56 | 0.56 | 88 | 1006.7 |
| 20260902200711 | 15 | 112 | 14.5 | 29.0 | 0.00 | 0.56 | 0.56 | 88 | 1006.7 |
| 20260902200207 | 15 | 139 | 14.5 | 30.6 | 0.03 | 0.56 | 0.56 | 87 | 1006.8 |
| 20260902200158 | 15 | 150 | 12.9 | 30.6 | 0.03 | 0.56 | 0.56 | 88 | 1006.6 |
| 20260902195205 | 15 | 120 | 6.4 | 25.7 | 0.03 | 0.56 | 0.56 | 88 | 1006.7 |
| 20260902194705 | 15 | 111 | 0.0 | 14.5 | 0.03 | 0.56 | 0.56 | 88 | 1006.7 |
| 20260902194203 | 15 | 158 | 0.0 | 1.6 | 0.03 | 0.56 | 0.56 | 88 | 1006.6 |
| 20260902193705 | 15 | 134 | 0.0 | 1.6 | 0.05 | 0.56 | 0.56 | 88 | 1006.6 |
| 20260902193206 | 15 | 146 | 0.0 | 1.6 | 0.05 | 0.56 | 0.56 | 88 | 1006.6 |
| 20260902192702 | 15 | 146 | 0.0 | 1.6 | 0.05 | 0.56 | 0.56 | 88 | 1006.7 |
| 20260902192420 | 15 | 123 | 0.0 | 1.6 | 0.05 | 0.56 | 0.56 | 88 | 1006.7 |
| 20260902191702 | 15 | 102 | 0.0 | 1.6 | 0.05 | 0.56 | 0.56 | 89 | 1006.6 |
| 20260902191200 | 15 | 114 | 0.0 | 1.6 | 0.05 | 0.56 | 0.56 | 89 | 1006.6 |
| 20260902190658 | 15 | 152 | 0.0 | 1.6 | 0.05 | 0.56 | 0.56 | 90 | 1006.6 |
| 20260902190423 | 15 | 115 | 1.6 | 1.6 | 0.05 | 0.53 | 0.53 | 90 | 1006.6 |
| 20260902185700 | 15 | 111 | 1.6 | 1.6 | 0.05 | 0.53 | 0.53 | 90 | 1006.6 |
| 20260902185159 | 15 | 113 | 1.6 | 1.6 | 0.05 | 0.53 | 0.53 | 91 | 1006.7 |
| 20260902184658 | 15 | 97 | 1.6 | 1.6 | 0.05 | 0.53 | 0.53 | 91 | 1006.7 |
| 20260902184158 | 15 | 114 | 1.6 | 1.6 | 0.05 | 0.53 | 0.53 | 90 | 1006.5 |
| 20260902183659 | 15 | 127 | 1.6 | 1.6 | 0.03 | 0.51 | 0.51 | 91 | 1006.6 |
| 20260902183419 | 15 | 118 | 1.6 | 1.6 | 0.05 | 0.51 | 0.51 | 90 | 1006.8 |
| 20260902182656 | 15 | 151 | 0.0 | 1.6 | 0.10 | 0.51 | 0.51 | 90 | 1006.8 |
| 20260902182152 | 15 | 106 | 0.0 | 1.6 | 0.13 | 0.51 | 0.51 | 90 | 1006.7 |
| 20260902181652 | 15 | 111 | 1.6 | 1.6 | 0.15 | 0.51 | 0.51 | 90 | 1006.7 |
| 20260902181155 | 15 | 137 | 1.6 | 1.6 | 0.23 | 0.51 | 0.51 | 90 | 1006.7 |
| 20260902180654 | 15 | 116 | 1.6 | 1.6 | 0.28 | 0.51 | 0.51 | 90 | 1006.9 |
| 20260902180153 | 15 | 101 | 1.6 | 1.6 | 0.30 | 0.48 | 0.48 | 90 | 1006.8 |
| 20260902175650 | 14 | 118 | 1.6 | 1.6 | 0.36 | 0.48 | 0.48 | 89 | 1006.8 |
| 20260902175150 | 14 | 79 | 1.6 | 1.6 | 0.38 | 0.48 | 0.48 | 90 | 1006.8 |
| 20260902174912 | 14 | 114 | 1.6 | 1.6 | 0.38 | 0.48 | 0.48 | 90 | 1006.7 |
| 20260902174411 | 14 | 104 | 1.6 | 9.7 | 0.38 | 0.48 | 0.48 | 91 | 1006.7 |
| 20260902173647 | 14 | 96 | 3.2 | 9.7 | 0.38 | 0.48 | 0.48 | 90 | 1006.9 |
| 20260902173133 | 14 | 86 | 1.6 | 8.0 | 0.36 | 0.46 | 0.46 | 90 | 1007.1 |
| 20260902172622 | 14 | 110 | 4.8 | 11.3 | 0.30 | 0.41 | 0.41 | 89 | 1007.0 |
| 20260902172112 | 14 | 139 | 3.2 | 11.3 | 0.28 | 0.38 | 0.38 | 89 | 1006.9 |
| 20260902171603 | 14 | 119 | 1.6 | 8.0 | 0.25 | 0.33 | 0.36 | 89 | 1006.9 |
| 20260902171101 | 14 | 190 | 3.2 | 12.9 | 0.20 | 0.28 | 0.28 | 88 | 1007.0 |
| 20260902170601 | 14 | 152 | 4.8 | 12.9 | 0.13 | 0.20 | 0.20 | 88 | 1007.1 |
| 20260902170318 | 14 | 224 | 4.8 | 11.3 | 0.08 | 0.15 | 0.18 | 88 | 1007.0 |
| 20260902165558 | 14 | 205 | 4.8 | 9.7 | 0.08 | 0.13 | 0.13 | 87 | 1006.9 |
| 20260902165056 | 14 | 182 | 6.4 | 11.3 | 0.08 | 0.10 | 0.10 | 87 | 1006.8 |
| 20260902164554 | 15 | 208 | 6.4 | 12.9 | 0.10 | 0.10 | 0.10 | 86 | 1006.7 |
| 20260902164045 | 15 | 160 | 6.4 | 12.9 | 0.10 | 0.10 | 0.10 | 85 | 1006.7 |
| 20260902163543 | 15 | 149 | 4.8 | 11.3 | 0.10 | 0.10 | 0.10 | 85 | 1006.7 |
| 20260902163042 | 15 | 158 | 4.8 | 9.7 | 0.10 | 0.10 | 0.10 | 85 | 1006.6 |
| 20260902162542 | 15 | 137 | 8.0 | 20.9 | 0.10 | 0.10 | 0.10 | 84 | 1006.6 |
| 20260902162307 | 15 | 133 | 8.0 | 20.9 | 0.10 | 0.10 | 0.10 | 83 | 1006.6 |
| 20260902161539 | 15 | 154 | 6.4 | 14.5 | 0.08 | 0.08 | 0.08 | 85 | 1006.7 |
| 20260902161039 | 14 | 189 | 6.4 | 17.7 | 0.08 | 0.08 | 0.08 | 84 | 1006.7 |
| 20260902160759 | 15 | 149 | 8.0 | 17.7 | 0.08 | 0.08 | 0.08 | 83 | 1006.7 |
| 20260902160037 | 15 | 165 | 6.4 | 12.9 | 0.08 | 0.08 | 0.08 | 84 | 1006.8 |
| 20260902155537 | 15 | 149 | 4.8 | 11.3 | 0.05 | 0.05 | 0.05 | 82 | 1006.8 |
| 20260902155036 | 15 | 235 | 4.8 | 9.7 | 0.03 | 0.03 | 0.03 | 81 | 1007.0 |
| 20260902154535 | 15 | 191 | 6.4 | 11.3 | 0.00 | 0.00 | 0.00 | 79 | 1006.9 |
| 20260902154034 | 15 | 224 | 4.8 | 11.3 | 0.00 | 0.00 | 0.00 | 78 | 1006.9 |
| 20260902153534 | 15 | 201 | 4.8 | 14.5 | 0.00 | 0.00 | 0.00 | 78 | 1006.9 |
| 20260902153035 | 15 | 232 | 3.2 | 14.5 | 0.00 | 0.00 | 0.00 | 78 | 1006.8 |
| 20260902152535 | 15 | 186 | 3.2 | 6.4 | 0.00 | 0.00 | 0.00 | 79 | 1006.9 |
| 20260902152032 | 15 | 231 | 1.6 | 4.8 | 0.00 | 0.00 | 0.00 | 80 | 1006.9 |
| 20260902151533 | 15 | 131 | 1.6 | 4.8 | 0.00 | 0.00 | 0.00 | 79 | 1006.9 |
| 20260902151033 | 15 | 131 | 1.6 | 3.2 | 0.00 | 0.00 | 0.00 | 78 | 1006.9 |
| 20260902150529 | 15 | 131 | 0.0 | 3.2 | 0.00 | 0.00 | 0.00 | 80 | 1006.8 |
| 20260902150032 | 15 | 131 | 1.6 | 4.8 | 0.00 | 0.00 | 0.00 | 78 | 1006.9 |
| 20260902145529 | 15 | 131 | 3.2 | 6.4 | 0.00 | 0.00 | 0.00 | 76 | 1006.9 |
| 20260902145025 | 15 | 161 | 3.2 | 6.4 | 0.00 | 0.00 | 0.00 | 77 | 1006.9 |
| 20260902144529 | 15 | 160 | 1.6 | 6.4 | 0.00 | 0.00 | 0.00 | 79 | 1007.0 |
| 20260902144501 | 15 | 158 | 1.6 | 4.8 | 0.00 | 0.00 | 0.00 | 81 | 1007.0 |
| 20260902143505 | 15 | 158 | 3.2 | 4.8 | 0.00 | 0.00 | 0.00 | 80 | 1007.1 |
| 20260902143004 | 15 | 158 | 3.2 | 6.4 | 0.00 | 0.00 | 0.00 | 80 | 1007.2 |
| 20260902142504 | 15 | 154 | 3.2 | 6.4 | 0.00 | 0.00 | 0.00 | 81 | 1007.2 |
| 20260902141956 | 15 | 139 | 3.2 | 6.4 | 0.00 | 0.00 | 0.00 | 80 | 1007.3 |
| 20260902141446 | 15 | 135 | 3.2 | 6.4 | 0.00 | 0.00 | 0.00 | 80 | 1007.3 |
| 20260902140950 | 15 | 133 | 4.8 | 8.0 | 0.00 | 0.00 | 0.00 | 79 | 1007.5 |
| 20260902140446 | 15 | 139 | 4.8 | 8.0 | 0.00 | 0.00 | 0.00 | 80 | 1007.4 |
| 20260902135945 | 15 | 134 | 4.8 | 8.0 | 0.00 | 0.00 | 0.00 | 81 | 1007.4 |
| 20260902135447 | 15 | 134 | 3.2 | 6.4 | 0.00 | 0.00 | 0.00 | 81 | 1007.4 |
| 20260902135206 | 15 | 133 | 3.2 | 6.4 | 0.00 | 0.00 | 0.00 | 82 | 1007.5 |
| 20260902134430 | 15 | 143 | 3.2 | 6.4 | 0.00 | 0.00 | 0.00 | 83 | 1007.6 |
| 20260902133921 | 14 | 130 | 1.6 | 6.4 | 0.00 | 0.00 | 0.00 | 84 | 1007.5 |
| 20260902133423 | 14 | 131 | 1.6 | 6.4 | 0.00 | 0.00 | 0.00 | 85 | 1007.6 |
| 20260902132918 | 14 | 106 | 0.0 | 4.8 | 0.00 | 0.00 | 0.00 | 87 | 1007.7 |
| 20260902132418 | 13 | 129 | 0.0 | 3.2 | 0.00 | 0.00 | 0.00 | 88 | 1007.8 |
| 20260902131914 | 14 | 129 | 3.2 | 6.4 | 0.00 | 0.00 | 0.00 | 86 | 1007.8 |
| 20260902131407 | 14 | 129 | 4.8 | 8.0 | 0.00 | 0.00 | 0.00 | 86 | 1007.9 |
| 20260902130903 | 13 | 147 | 3.2 | 8.0 | 0.00 | 0.00 | 0.00 | 88 | 1007.9 |
| 20260902130402 | 13 | 143 | 1.6 | 4.8 | 0.00 | 0.00 | 0.00 | 90 | 1008.0 |
| 20260902125900 | 13 | 143 | 0.0 | 3.2 | 0.00 | 0.00 | 0.00 | 90 | 1008.1 |
| 20260902125622 | 13 | 143 | 0.0 | 0.0 | 0.00 | 0.00 | 0.00 | 90 | 1008.2 |
| 20260902124900 | 13 | 143 | 0.0 | 1.6 | 0.00 | 0.00 | 0.00 | 90 | 1008.2 |
| 20260902124352 | 13 | 143 | 0.0 | 1.6 | 0.00 | 0.00 | 0.00 | 90 | 1008.2 |
| 20260902123853 | 13 | 143 | 0.0 | 1.6 | 0.00 | 0.00 | 0.00 | 90 | 1008.3 |
| 20260902123832 | 13 | 143 | 0.0 | 3.2 | 0.00 | 0.00 | 0.00 | 90 | 1008.4 |
| 20260902122832 | 13 | 143 | 0.0 | 3.2 | 0.00 | 0.00 | 0.00 | 90 | 1008.4 |
| 20260902122324 | 13 | 143 | 0.0 | 1.6 | 0.00 | 0.00 | 0.00 | 90 | 1008.5 |
| 20260902122313 | 13 | 143 | 0.0 | 1.6 | 0.00 | 0.00 | 0.00 | 90 | 1008.5 |
| 20260902121317 | 13 | 143 | 0.0 | 1.6 | 0.00 | 0.00 | 0.00 | 90 | 1008.6 |
| 20260902121302 | 13 | 143 | 0.0 | 1.6 | 0.00 | 0.00 | 0.00 | 90 | 1008.7 |
| 20260902120305 | 13 | 143 | 0.0 | 3.2 | 0.00 | 0.00 | 0.00 | 90 | 1008.7 |
| 20260902115748 | 13 | 143 | 1.6 | 3.2 | 0.00 | 0.00 | 0.00 | 90 | 1008.8 |
| 20260902115236 | 13 | 143 | 0.0 | 3.2 | 0.00 | 0.00 | 0.00 | 91 | 1008.9 |
| 20260902114734 | 13 | 143 | 0.0 | 0.0 | 0.00 | 0.00 | 0.00 | 91 | 1009.0 |
| 20260902114231 | 13 | 143 | 0.0 | 0.0 | 0.00 | 0.00 | 0.00 | 91 | 1008.9 |
| 20260902113731 | 13 | 143 | 0.0 | 0.0 | 0.00 | 0.00 | 0.00 | 91 | 1009.0 |
| 20260902113217 | 13 | 143 | 0.0 | 0.0 | 0.00 | 0.00 | 0.00 | 91 | 1009.0 |
| 20260902112708 | 13 | 143 | 0.0 | 0.0 | 0.00 | 0.00 | 0.00 | 91 | 1009.1 |
| 20260902112201 | 13 | 143 | 0.0 | 0.0 | 0.00 | 0.00 | 0.00 | 93 | 1009.1 |
| 20260902111912 | 13 | 143 | 0.0 | 0.0 | 0.00 | 0.00 | 0.00 | 93 | 1009.1 |
| 20260902111142 | 13 | 143 | 0.0 | 0.0 | 0.00 | 0.00 | 0.00 | 93 | 1009.1 |
| 20260902110642 | 13 | 143 | 0.0 | 0.0 | 0.00 | 0.00 | 0.00 | 93 | 1009.3 |
| 20260902110142 | 13 | 143 | 0.0 | 0.0 | 0.00 | 0.00 | 0.00 | 92 | 1009.4 |
| 20260902105627 | 13 | 143 | 0.0 | 0.0 | 0.00 | 0.00 | 0.00 | 91 | 1009.4 |
| 20260902105107 | 13 | 143 | 0.0 | 0.0 | 0.00 | 0.00 | 0.00 | 91 | 1009.5 |
| 20260902104603 | 13 | 143 | 0.0 | 0.0 | 0.00 | 0.00 | 0.00 | 91 | 1009.6 |
| 20260902104315 | 13 | 143 | 0.0 | 0.0 | 0.00 | 0.00 | 0.00 | 91 | 1009.7 |
| 20260902103539 | 13 | 143 | 0.0 | 0.0 | 0.00 | 0.00 | 0.00 | 90 | 1009.6 |
| 20260902103255 | 13 | 143 | 0.0 | 0.0 | 0.00 | 0.00 | 0.00 | 90 | 1009.7 |
| 20260902102531 | 13 | 143 | 0.0 | 0.0 | 0.00 | 0.00 | 0.00 | 90 | 1009.8 |
| 20260902102020 | 13 | 143 | 0.0 | 0.0 | 0.00 | 0.00 | 0.00 | 91 | 1009.8 |
| 20260902101519 | 13 | 143 | 0.0 | 0.0 | 0.00 | 0.00 | 0.00 | 90 | 1009.9 |
| 20260902101017 | 13 | 143 | 0.0 | 0.0 | 0.00 | 0.00 | 0.00 | 90 | 1009.8 |
| 20260902100515 | 13 | 143 | 0.0 | 0.0 | 0.00 | 0.00 | 0.00 | 90 | 1009.9 |
| 20260902100006 | 13 | 143 | 0.0 | 0.0 | 0.00 | 0.00 | 0.00 | 89 | 1009.9 |
| 20260902095503 | 13 | 143 | 0.0 | 3.2 | 0.00 | 0.00 | 0.00 | 89 | 1009.9 |
| 20260902095006 | 13 | 143 | 1.6 | 3.2 | 0.00 | 0.00 | 0.00 | 88 | 1010.0 |
| 20260902094454 | 13 | 143 | 1.6 | 3.2 | 0.00 | 0.00 | 0.00 | 88 | 1010.1 |
| 20260902093952 | 13 | 143 | 1.6 | 3.2 | 0.00 | 0.00 | 0.00 | 88 | 1010.2 |
| 20260902093450 | 13 | 143 | 1.6 | 4.8 | 0.00 | 0.00 | 0.00 | 89 | 1010.3 |
| 20260902092950 | 13 | 143 | 1.6 | 4.8 | 0.00 | 0.00 | 0.00 | 89 | 1010.4 |
| 20260902092447 | 13 | 143 | 1.6 | 4.8 | 0.00 | 0.00 | 0.00 | 90 | 1010.5 |
| 20260902091942 | 13 | 143 | 1.6 | 4.8 | 0.00 | 0.00 | 0.00 | 89 | 1010.6 |
| 20260902091442 | 13 | 143 | 1.6 | 3.2 | 0.00 | 0.00 | 0.00 | 89 | 1010.6 |
| 20260902090946 | 13 | 143 | 1.6 | 3.2 | 0.00 | 0.00 | 0.00 | 89 | 1010.6 |
| 20260902090651 | 13 | 143 | 1.6 | 4.8 | 0.00 | 0.00 | 0.00 | 89 | 1010.6 |
| 20260902085926 | 13 | 143 | 3.2 | 4.8 | 0.00 | 0.00 | 0.00 | 90 | 1010.6 |
| 20260902085427 | 13 | 143 | 1.6 | 4.8 | 0.00 | 0.00 | 0.00 | 90 | 1010.7 |
| 20260902085410 | 13 | 143 | 1.6 | 4.8 | 0.00 | 0.00 | 0.00 | 90 | 1010.7 |
| 20260902084419 | 12 | 143 | 1.6 | 3.2 | 0.00 | 0.00 | 0.00 | 89 | 1010.8 |
| 20260902084141 | 12 | 143 | 3.2 | 6.4 | 0.00 | 0.00 | 0.00 | 90 | 1010.8 |
| 20260902083418 | 12 | 143 | 3.2 | 6.4 | 0.00 | 0.00 | 0.00 | 90 | 1010.8 |
| 20260902082917 | 12 | 143 | 1.6 | 4.8 | 0.00 | 0.00 | 0.00 | 90 | 1010.9 |
| 20260902082412 | 12 | 143 | 1.6 | 4.8 | 0.00 | 0.00 | 0.00 | 91 | 1010.9 |
| 20260902081906 | 12 | 143 | 0.0 | 3.2 | 0.00 | 0.00 | 0.00 | 92 | 1010.9 |
| 20260902081355 | 11 | 143 | 1.6 | 4.8 | 0.00 | 0.00 | 0.00 | 92 | 1010.8 |
| 20260902080836 | 11 | 143 | 0.0 | 4.8 | 0.00 | 0.00 | 0.00 | 91 | 1010.9 |
| 20260902080338 | 12 | 143 | 0.0 | 1.6 | 0.00 | 0.00 | 0.00 | 91 | 1010.9 |
| 20260902080049 | 12 | 143 | 0.0 | 3.2 | 0.00 | 0.00 | 0.00 | 90 | 1010.9 |
| 20260902075327 | 12 | 143 | 1.6 | 4.8 | 0.00 | 0.00 | 0.00 | 89 | 1010.9 |
| 20260902074814 | 12 | 143 | 1.6 | 4.8 | 0.00 | 0.00 | 0.00 | 90 | 1010.9 |
| 20260902074534 | 12 | 136 | 0.0 | 4.8 | 0.00 | 0.00 | 0.00 | 89 | 1010.9 |
| 20260902073814 | 12 | 262 | 0.0 | 0.0 | 0.00 | 0.00 | 0.00 | 90 | 1010.9 |
| 20260902073311 | 12 | 263 | 0.0 | 0.0 | 0.00 | 0.00 | 0.00 | 90 | 1011.0 |
| 20260902072753 | 12 | 262 | 0.0 | 0.0 | 0.00 | 0.00 | 0.00 | 90 | 1011.0 |
| 20260902072254 | 12 | 262 | 0.0 | 0.0 | 0.00 | 0.00 | 0.00 | 90 | 1011.1 |
| 20260902071741 | 12 | 262 | 0.0 | 0.0 | 0.00 | 0.00 | 0.00 | 90 | 1011.1 |
| 20260902071238 | 12 | 263 | 0.0 | 0.0 | 0.00 | 0.00 | 0.00 | 90 | 1011.2 |
| 20260902070738 | 12 | 263 | 0.0 | 0.0 | 0.00 | 0.00 | 0.00 | 89 | 1011.2 |
| 20260902070234 | 13 | 263 | 0.0 | 0.0 | 0.00 | 0.00 | 0.00 | 88 | 1011.2 |
| 20260902065732 | 13 | 262 | 0.0 | 0.0 | 0.00 | 0.00 | 0.00 | 87 | 1011.2 |
| 20260902065225 | 13 | 262 | 0.0 | 0.0 | 0.00 | 0.00 | 0.00 | 87 | 1011.2 |
| 20260902064717 | 13 | 263 | 0.0 | 0.0 | 0.00 | 0.00 | 0.00 | 87 | 1011.2 |
| 20260902064211 | 13 | 263 | 0.0 | 0.0 | 0.00 | 0.00 | 0.00 | 86 | 1011.2 |
| 20260902063702 | 14 | 262 | 0.0 | 0.0 | 0.00 | 0.00 | 0.00 | 86 | 1011.2 |
| 20260902063154 | 14 | 262 | 0.0 | 0.0 | 0.00 | 0.00 | 0.00 | 85 | 1011.3 |
| 20260902062655 | 15 | 263 | 0.0 | 0.0 | 0.00 | 0.00 | 0.00 | 84 | 1011.4 |
| 20260902062407 | 15 | 263 | 0.0 | 0.0 | 0.00 | 0.00 | 0.00 | 84 | 1011.4 |
| 20260902061633 | 15 | 263 | 0.0 | 0.0 | 0.00 | 0.00 | 0.00 | 84 | 1011.5 |
| 20260902061533 | 15 | 263 | 0.0 | 0.0 | 0.00 | 0.00 | 0.00 | 83 | 1011.5 |
| 20260902061156 | 15 | 263 | 0.0 | 0.0 | 0.00 | 0.00 | 0.00 | 83 | 1011.5 |
| 20260902060104 | 15 | 263 | 0.0 | 0.0 | 0.00 | 0.00 | 0.00 | 82 | 1011.7 |
| 20260902055549 | 15 | 262 | 0.0 | 0.0 | 0.00 | 0.00 | 0.00 | 82 | 1011.7 |
| 20260902055050 | 16 | 263 | 0.0 | 0.0 | 0.00 | 0.00 | 0.00 | 82 | 1011.7 |
| 20260902054545 | 16 | 262 | 0.0 | 0.0 | 0.00 | 0.00 | 0.00 | 81 | 1011.8 |
| 20260902054041 | 16 | 262 | 0.0 | 1.6 | 0.00 | 0.00 | 0.00 | 81 | 1011.9 |
| 20260902053540 | 16 | 262 | 0.0 | 1.6 | 0.00 | 0.00 | 0.00 | 81 | 1011.9 |
| 20260902053311 | 16 | 262 | 0.0 | 3.2 | 0.00 | 0.00 | 0.00 | 80 | 1012.0 |
| 20260902052532 | 16 | 263 | 1.6 | 4.8 | 0.00 | 0.00 | 0.00 | 80 | 1012.0 |
| 20260902052257 | 16 | 263 | 4.8 | 8.0 | 0.00 | 0.00 | 0.00 | 80 | 1012.0 |
| 20260902051518 | 16 | 291 | 4.8 | 11.3 | 0.00 | 0.00 | 0.00 | 80 | 1012.0 |
| 20260902051020 | 16 | 291 | 4.8 | 11.3 | 0.00 | 0.00 | 0.00 | 81 | 1012.1 |
| 20260902050519 | 16 | 267 | 4.8 | 8.0 | 0.00 | 0.00 | 0.00 | 81 | 1012.1 |
| 20260902050018 | 16 | 254 | 3.2 | 8.0 | 0.00 | 0.00 | 0.00 | 81 | 1012.1 |
| 20260902045517 | 16 | 253 | 1.6 | 6.4 | 0.00 | 0.00 | 0.00 | 81 | 1012.1 |
| 20260902045015 | 16 | 239 | 1.6 | 4.8 | 0.00 | 0.00 | 0.00 | 81 | 1012.0 |
| 20260902044505 | 16 | 239 | 0.0 | 4.8 | 0.00 | 0.00 | 0.00 | 81 | 1012.1 |
| 20260902044008 | 15 | 239 | 0.0 | 1.6 | 0.00 | 0.00 | 0.00 | 81 | 1012.1 |
| 20260902043458 | 15 | 239 | 1.6 | 3.2 | 0.00 | 0.00 | 0.00 | 81 | 1012.1 |
| 20260902042952 | 16 | 239 | 1.6 | 3.2 | 0.00 | 0.00 | 0.00 | 81 | 1012.1 |
| 20260902042919 | 15 | 239 | 0.0 | 3.2 | 0.00 | 0.00 | 0.00 | 81 | 1012.0 |
| 20260902041942 | 15 | 239 | 3.2 | 6.4 | 0.00 | 0.00 | 0.00 | 81 | 1011.9 |
| 20260902041437 | 15 | 239 | 4.8 | 6.4 | 0.00 | 0.00 | 0.00 | 81 | 1011.9 |
| 20260902040933 | 15 | 239 | 3.2 | 6.4 | 0.00 | 0.00 | 0.00 | 81 | 1011.8 |
| 20260902040433 | 16 | 281 | 1.6 | 4.8 | 0.00 | 0.00 | 0.00 | 80 | 1011.8 |
| 20260902035929 | 16 | 281 | 0.0 | 3.2 | 0.00 | 0.00 | 0.00 | 80 | 1011.6 |
| 20260902035426 | 16 | 281 | 0.0 | 1.6 | 0.00 | 0.00 | 0.00 | 79 | 1011.5 |
| 20260902034913 | 16 | 281 | 0.0 | 1.6 | 0.00 | 0.00 | 0.00 | 79 | 1011.5 |
| 20260902034413 | 16 | 281 | 0.0 | 3.2 | 0.00 | 0.00 | 0.00 | 79 | 1011.4 |
| 20260902033904 | 16 | 281 | 0.0 | 3.2 | 0.00 | 0.00 | 0.00 | 78 | 1011.4 |
| 20260902033341 | 16 | 281 | 0.0 | 3.2 | 0.00 | 0.00 | 0.00 | 78 | 1011.4 |
| 20260902033327 | 16 | 281 | 1.6 | 3.2 | 0.00 | 0.00 | 0.00 | 78 | 1011.4 |
| 20260902032339 | 16 | 281 | 1.6 | 4.8 | 0.00 | 0.00 | 0.00 | 78 | 1011.4 |
| 20260902031834 | 16 | 281 | 1.6 | 4.8 | 0.00 | 0.00 | 0.00 | 78 | 1011.4 |
| 20260902031822 | 16 | 281 | 3.2 | 4.8 | 0.00 | 0.00 | 0.00 | 77 | 1011.3 |
| 20260902030827 | 16 | 281 | 3.2 | 6.4 | 0.00 | 0.00 | 0.00 | 77 | 1011.4 |
| 20260902030321 | 17 | 281 | 3.2 | 6.4 | 0.00 | 0.00 | 0.00 | 76 | 1011.3 |
| 20260902025819 | 17 | 281 | 3.2 | 6.4 | 0.00 | 0.00 | 0.00 | 76 | 1011.3 |
| 20260902025322 | 17 | 311 | 3.2 | 8.0 | 0.00 | 0.00 | 0.00 | 75 | 1011.4 |
| 20260902024810 | 17 | 286 | 4.8 | 9.7 | 0.00 | 0.00 | 0.00 | 75 | 1011.4 |
| 20260902024309 | 17 | 275 | 4.8 | 9.7 | 0.00 | 0.00 | 0.00 | 75 | 1011.4 |
| 20260902023808 | 17 | 291 | 4.8 | 12.9 | 0.00 | 0.00 | 0.00 | 74 | 1011.5 |
| 20260902023308 | 17 | 299 | 3.2 | 12.9 | 0.00 | 0.00 | 0.00 | 74 | 1011.5 |
| 20260902022807 | 17 | 281 | 4.8 | 8.0 | 0.00 | 0.00 | 0.00 | 73 | 1011.5 |
| 20260902022306 | 17 | 281 | 4.8 | 11.3 | 0.00 | 0.00 | 0.00 | 73 | 1011.5 |
| 20260902021810 | 17 | 260 | 3.2 | 11.3 | 0.00 | 0.00 | 0.00 | 73 | 1011.4 |
| 20260902021523 | 18 | 281 | 3.2 | 12.9 | 0.00 | 0.00 | 0.00 | 73 | 1011.4 |
| 20260902020801 | 18 | 291 | 4.8 | 12.9 | 0.00 | 0.00 | 0.00 | 72 | 1011.4 |
| 20260902020302 | 18 | 315 | 4.8 | 12.9 | 0.00 | 0.00 | 0.00 | 73 | 1011.4 |
| 20260902015803 | 18 | 341 | 6.4 | 12.9 | 0.00 | 0.00 | 0.00 | 72 | 1011.4 |
| 20260902015258 | 18 | 301 | 4.8 | 12.9 | 0.00 | 0.00 | 0.00 | 71 | 1011.4 |
| 20260902014759 | 18 | 297 | 4.8 | 9.7 | 0.00 | 0.00 | 0.00 | 71 | 1011.3 |
| 20260902014258 | 18 | 297 | 4.8 | 8.0 | 0.00 | 0.00 | 0.00 | 71 | 1011.4 |
| 20260902014021 | 18 | 281 | 4.8 | 11.3 | 0.00 | 0.00 | 0.00 | 72 | 1011.3 |
| 20260902013522 | 18 | 291 | 4.8 | 12.9 | 0.00 | 0.00 | 0.00 | 71 | 1011.4 |
| 20260902013018 | 18 | 298 | 6.4 | 14.5 | 0.00 | 0.00 | 0.00 | 71 | 1011.3 |
| 20260902012253 | 18 | 343 | 6.4 | 14.5 | 0.00 | 0.00 | 0.00 | 71 | 1011.4 |
| 20260902011753 | 18 | 328 | 6.4 | 12.9 | 0.00 | 0.00 | 0.00 | 72 | 1011.4 |
| 20260902011252 | 18 | 316 | 6.4 | 14.5 | 0.00 | 0.00 | 0.00 | 71 | 1011.3 |
| 20260902010743 | 18 | 256 | 8.0 | 16.1 | 0.00 | 0.00 | 0.00 | 71 | 1011.3 |
| 20260902010506 | 18 | 262 | 9.7 | 16.1 | 0.00 | 0.00 | 0.00 | 71 | 1011.3 |
| 20260902005744 | 18 | 263 | 9.7 | 16.1 | 0.00 | 0.00 | 0.00 | 70 | 1011.2 |
| 20260902005243 | 18 | 297 | 8.0 | 16.1 | 0.00 | 0.00 | 0.00 | 70 | 1011.1 |
| 20260902004742 | 18 | 286 | 8.0 | 17.7 | 0.00 | 0.00 | 0.00 | 69 | 1011.2 |
| 20260902004239 | 18 | 322 | 9.7 | 17.7 | 0.00 | 0.00 | 0.00 | 69 | 1011.2 |
| 20260902003739 | 19 | 291 | 9.7 | 20.9 | 0.00 | 0.00 | 0.00 | 69 | 1011.2 |
| 20260902003458 | 19 | 249 | 9.7 | 20.9 | 0.00 | 0.00 | 0.00 | 68 | 1011.2 |
| 20260902002733 | 19 | 257 | 9.7 | 16.1 | 0.00 | 0.00 | 0.00 | 67 | 1011.2 |
| 20260902002229 | 19 | 277 | 9.7 | 20.9 | 0.00 | 0.00 | 0.00 | 67 | 1011.1 |
| 20260902001727 | 19 | 272 | 9.7 | 20.9 | 0.00 | 0.00 | 0.00 | 67 | 1011.1 |
| 20260902001228 | 19 | 324 | 8.0 | 19.3 | 0.00 | 0.00 | 0.00 | 67 | 1011.0 |
| 20260902000727 | 19 | 241 | 8.0 | 19.3 | 0.00 | 0.00 | 0.00 | 67 | 1011.0 |
| 20260902000226 | 19 | 222 | 8.0 | 19.3 | 0.00 | 0.00 | 0.00 | 68 | 1011.0 |
| 20260901235943 | 19 | 235 | 9.7 | 19.3 | 0.00 | 0.00 | 0.00 | 68 | 1010.9 |
| 20260901235216 | 19 | 291 | 9.7 | 19.3 | 0.00 | 0.00 | 0.00 | 68 | 1011.0 |
| 20260901234714 | 19 | 261 | 9.7 | 14.5 | 0.00 | 0.00 | 0.00 | 66 | 1011.0 |
| 20260901234211 | 19 | 297 | 8.0 | 16.1 | 0.00 | 0.00 | 0.00 | 66 | 1010.9 |
| 20260901233711 | 19 | 270 | 8.0 | 16.1 | 0.00 | 0.00 | 0.00 | 66 | 1011.1 |
| 20260901233429 | 20 | 257 | 9.7 | 19.3 | 0.00 | 0.00 | 0.00 | 66 | 1011.0 |
| 20260901232710 | 19 | 286 | 11.3 | 19.3 | 0.00 | 0.00 | 0.00 | 67 | 1011.1 |
| 20260901232209 | 19 | 243 | 11.3 | 19.3 | 0.00 | 0.00 | 0.00 | 66 | 1011.0 |
| 20260901231928 | 19 | 332 | 11.3 | 19.3 | 0.00 | 0.00 | 0.00 | 68 | 1011.0 |
| 20260901231439 | 19 | 240 | 12.9 | 24.1 | 0.00 | 0.00 | 0.00 | 67 | 1011.1 |
| 20260901230707 | 19 | 281 | 12.9 | 24.1 | 0.00 | 0.00 | 0.00 | 67 | 1011.2 |
| 20260901230205 | 19 | 241 | 12.9 | 24.1 | 0.00 | 0.00 | 0.00 | 68 | 1011.1 |
| 20260901225707 | 19 | 245 | 12.9 | 24.1 | 0.00 | 0.00 | 0.00 | 68 | 1011.2 |
| 20260901225209 | 19 | 252 | 9.7 | 19.3 | 0.00 | 0.00 | 0.00 | 67 | 1011.2 |
| 20260901224704 | 19 | 243 | 9.7 | 19.3 | 0.00 | 0.00 | 0.00 | 67 | 1011.1 |
| 20260901224203 | 20 | 244 | 9.7 | 17.7 | 0.00 | 0.00 | 0.00 | 67 | 1011.1 |
| 20260901223703 | 20 | 264 | 8.0 | 17.7 | 0.00 | 0.00 | 0.00 | 66 | 1011.2 |
| 20260901223206 | 20 | 318 | 6.4 | 11.3 | 0.00 | 0.00 | 0.00 | 67 | 1011.3 |
| 20260901222705 | 19 | 281 | 6.4 | 9.7 | 0.00 | 0.00 | 0.00 | 67 | 1011.2 |
| 20260901222202 | 19 | 286 | 8.0 | 19.3 | 0.00 | 0.00 | 0.00 | 68 | 1011.1 |
| 20260901221705 | 18 | 291 | 11.3 | 22.5 | 0.00 | 0.00 | 0.00 | 68 | 1011.2 |
| 20260901221203 | 19 | 263 | 12.9 | 24.1 | 0.00 | 0.00 | 0.00 | 68 | 1011.2 |
| 20260901220701 | 19 | 247 | 11.3 | 20.9 | 0.00 | 0.00 | 0.00 | 65 | 1011.1 |
| 20260901220422 | 19 | 249 | 11.3 | 19.3 | 0.00 | 0.00 | 0.00 | 65 | 1011.1 |
| 20260901215657 | 19 | 286 | 9.7 | 19.3 | 0.00 | 0.00 | 0.00 | 65 | 1011.1 |
| 20260901215156 | 19 | 223 | 11.3 | 19.3 | 0.00 | 0.00 | 0.00 | 64 | 1011.0 |
| 20260901214655 | 20 | 226 | 8.0 | 19.3 | 0.00 | 0.00 | 0.00 | 64 | 1010.9 |
| 20260901214154 | 20 | 201 | 8.0 | 17.7 | 0.00 | 0.00 | 0.00 | 64 | 1011.0 |
| 20260901213654 | 19 | 211 | 9.7 | 19.3 | 0.00 | 0.00 | 0.00 | 65 | 1010.9 |
| 20260901213153 | 19 | 205 | 11.3 | 22.5 | 0.00 | 0.00 | 0.00 | 65 | 1011.0 |
| 20260901212653 | 19 | 204 | 9.7 | 22.5 | 0.00 | 0.00 | 0.00 | 64 | 1010.9 |
| 20260901212156 | 19 | 182 | 8.0 | 16.1 | 0.00 | 0.00 | 0.00 | 65 | 1011.0 |
| 20260901211655 | 18 | 193 | 9.7 | 16.1 | 0.00 | 0.00 | 0.00 | 65 | 1011.0 |
| 20260901211638 | 19 | 214 | 8.0 | 16.1 | 0.00 | 0.00 | 0.00 | 65 | 1011.1 |
| 20260901210909 | 18 | 234 | 8.0 | 17.7 | 0.00 | 0.00 | 0.00 | 65 | 1011.0 |
| 20260901210414 | 19 | 199 | 8.0 | 17.7 | 0.00 | 0.00 | 0.00 | 66 | 1011.0 |
| 20260901205648 | 19 | 243 | 6.4 | 14.5 | 0.00 | 0.00 | 0.00 | 65 | 1011.0 |
| 20260901205147 | 19 | 235 | 8.0 | 17.7 | 0.00 | 0.00 | 0.00 | 64 | 1011.0 |